Wind_Speed
28 31 34 36 38 39 39 38 41 50 57 61 63 63 65 64 64 62 60 64 59 54 51 48 47 42 42 39 37 39 38 42 41 39 43 46 49 54 58 58 61 61 61 62 58
28 28 29 30 30 31 33 36 40 43 47 51 54 58 62 67 67 66 67 58 62 65 57 53 50 46 44 43 40 37 44 44 39 38 34 39 44 50 49 50 53 56 60 62 61
25 26 27 28 28 29 29 31 36 40 44 47 53 59 57 58 68 70 64 63 61 62 60 55 50 49 49 47 47 44 46 45 38 36 34 34 39 47 50 52 52 52 53 56 60
25 25 25 26 28 31 35 36 35 36 38 41 46 50 59 61 62 69 68 64 62 62 61 59 55 54 54 53 52 48 47 45 40 35 34 35 42 43 46 46 51 54 56 60 61
28 26 25 23 25 28 30 32 35 36 36 39 41 44 51 60 56 67 71 68 64 64 64 61 57 56 53 56 53 53 50 47 41 39 37 37 42 44 48 49 48 47 50 59 62
30 29 28 26 25 25 28 29 31 34 34 34 35 37 43 52 54 62 69 70 69 66 64 64 61 57 54 56 57 57 53 49 42 43 44 45 42 45 48 49 48 50 54 55 54
33 32 30 30 28 27 25 27 29 31 32 32 31 30 35 42 57 59 59 63 69 67 66 62 62 60 59 57 61 60 55 50 44 47 48 49 46 47 47 48 49 50 55 55 53
37 35 35 34 32 29 29 26 27 30 33 32 30 27 27 39 47 52 57 61 69 66 66 62 62 61 63 61 62 64 61 54 53 51 52 50 52 49 50 50 49 52 55 55 53
41 38 37 38 37 34 30 31 28 29 31 33 29 25 23 32 46 46 44 49 62 63 63 61 61 61 62 62 60 65 63 62 58 55 56 51 55 50 51 52 52 52 55 56 56
44 39 38 40 42 40 36 33 32 27 28 28 30 25 22 23 41 48 45 45 52 63 61 61 63 65 66 63 61 66 67 58 58 61 59 54 57 52 52 53 55 56 56 55 55
55 52 43 40 43 44 42 39 35 31 22 25 28 29 25 24 26 44 48 47 45 49 58 61 63 67 69 65 60 64 66 68 65 61 59 57 55 56 56 55 55 58 61 59 56
58 52 46 44 43 43 45 43 41 35 29 25 25 28 31 28 25 32 47 50 51 54 58 59 63 70 67 64 61 58 61 66 60 62 60 55 54 55 57 58 58 59 62 63 59
49 48 48 45 44 43 45 47 44 38 34 31 26 26 30 32 27 27 35 46 47 47 55 64 66 65 65 62 60 61 63 60 58 59 62 61 60 60 59 59 59 60 62 63 61
50 44 43 45 46 43 47 48 45 40 37 37 29 27 30 29 32 30 25 42 43 45 51 57 56 56 58 60 60 59 62 61 62 65 66 66 65 63 60 60 61 61 61 62 62
55 50 45 43 46 44 49 49 44 40 39 36 33 30 27 30 33 34 27 34 45 48 49 53 52 54 54 59 61 62 62 62 61 57 57 60 63 63 60 59 60 61 61 62 62
54 50 48 46 44 43 51 49 46 41 40 38 35 33 26 30 31 33 32 28 45 51 51 49 51 52 56 59 58 59 60 60 60 60 61 59 61 63 58 61 62 62 64 66 64
45 43 46 46 45 41 53 49 45 42 42 42 39 35 30 29 31 31 34 29 33 51 51 50 51 54 56 57 57 58 56 57 58 59 67 60 65 70 62 66 64 63 64 66 65
37 36 41 46 42 40 52 50 44 49 41 42 42 38 35 30 31 32 32 31 27 32 51 53 55 56 57 55 54 56 55 56 55 56 62 57 65 64 64 66 67 65 64 64 65
26 30 37 41 39 40 47 51 52 48 43 44 43 40 37 34 32 33 32 36 33 29 36 52 56 56 57 57 57 56 57 60 59 55 58 64 61 63 63 63 64 64 63 64 65
21 28 34 37 37 38 43 57 57 47 44 45 42 39 39 38 34 33 35 35 37 32 30 37 52 56 55 56 60 59 60 60 62 59 58 57 61 67 60 62 62 62 63 65 66
16 25 32 32 32 38 43 57 59 49 46 44 41 41 41 39 37 33 35 35 36 36 34 32 34 45 55 57 58 59 61 62 62 60 61 60 64 62 63 64 63 64 65 66 67
12 21 25 28 33 38 44 49 55 50 46 44 42 41 42 41 39 36 33 36 37 38 39 37 35 34 42 50 56 58 59 60 62 62 64 64 68 64 64 66 66 67 67 67 69
9 17 23 28 32 34 41 44 49 50 46 45 44 43 43 43 40 37 36 35 37 38 37 38 37 37 35 37 42 51 56 59 60 62 63 66 68 67 68 67 70 70 71 71 71
9 15 17 20 24 30 35 39 43 47 48 50 49 48 45 45 44 41 40 38 36 38 40 38 39 39 40 40 40 41 44 48 55 60 62 64 68 62 65 68 70 70 72 72 72
9 10 15 21 23 28 32 37 42 50 55 52 49 48 47 47 46 43 43 41 39 38 39 40 41 44 45 47 48 47 47 49 52 54 54 57 60 60 64 64 65 68 70 72 75
8 8 7 7 18 23 25 30 36 46 52 51 51 50 49 47 45 45 44 43 42 42 40 38 42 47 48 50 49 48 49 50 51 53 56 60 59 61 64 67 68 70 71 73 75
12 8 5 6 9 14 20 27 33 38 46 49 49 49 48 47 45 45 45 45 45 43 41 40 42 44 45 48 49 53 52 56 57 61 64 67 67 69 69 71 72 71 73 75 77
Wind_Direction
295 283 275 271 267 261 257 253 250 247 243 242 244 242 237 236 234 232 229 226 231 233 231 231 226 227 223 231 231 226 228 231 226 226 232 237 238 242 245 245 246 246 246 247 247
303 292 283 279 274 266 260 254 252 249 245 243 243 240 237 236 233 232 230 227 224 232 232 231 228 223 226 230 232 231 232 229 227 224 227 234 238 241 242 242 245 249 249 248 247
314 302 290 280 274 267 260 261 255 251 249 247 244 240 239 236 229 229 230 225 225 227 230 228 227 222 224 228 235 230 234 232 226 223 218 226 233 242 243 242 244 247 249 249 249
317 311 302 285 276 266 265 265 260 257 253 249 246 245 239 234 230 226 227 226 224 225 228 228 227 228 224 225 230 233 236 231 226 220 213 212 228 235 243 244 245 246 248 250 250
312 307 306 300 283 275 272 267 260 256 256 250 250 250 240 233 231 226 226 226 226 224 225 226 226 227 226 224 229 235 238 233 225 221 217 213 229 232 238 240 243 245 248 249 250
307 303 299 295 294 288 275 271 264 256 256 251 253 249 241 232 227 225 225 225 226 225 222 224 225 224 224 227 227 232 238 238 229 223 220 220 226 234 236 238 242 244 247 249 250
301 296 291 289 289 288 283 271 266 256 255 253 255 253 246 232 224 224 225 226 224 223 222 221 223 224 226 227 225 231 233 240 239 235 226 221 223 239 239 239 240 244 247 250 254
297 293 287 282 279 280 277 273 268 261 252 254 254 258 252 232 223 226 230 227 223 221 220 220 221 223 226 227 227 229 235 238 237 242 237 225 223 235 242 242 241 243 248 251 254
295 286 283 277 272 271 272 268 269 264 255 250 253 257 254 238 223 221 222 222 221 222 222 222 221 222 226 225 225 223 231 237 239 238 242 236 230 232 243 245 243 243 246 249 250
292 284 276 271 268 263 263 264 264 263 259 254 248 250 251 243 226 223 226 223 221 221 220 221 223 224 223 224 226 225 226 230 243 237 239 241 237 242 240 246 246 245 247 250 250
290 286 273 261 260 260 256 257 258 258 258 258 249 243 248 243 231 225 223 222 225 222 221 224 223 223 224 224 226 226 229 232 235 240 244 243 243 242 241 246 251 251 250 250 250
286 278 267 256 253 253 254 252 251 255 252 254 257 247 242 241 236 229 225 224 224 224 223 225 225 225 223 225 225 229 231 234 234 239 245 244 243 243 242 246 252 253 251 250 250
284 275 263 251 249 246 249 249 249 249 249 251 253 250 243 237 234 237 229 225 228 230 225 221 223 222 223 226 226 225 226 232 235 238 242 246 246 245 246 247 250 253 252 251 252
284 274 264 255 239 239 243 244 245 246 246 247 248 247 242 236 234 234 236 221 224 217 215 216 221 224 227 227 227 229 231 230 233 236 239 242 242 244 247 246 251 253 252 252 252
281 275 265 256 242 227 237 239 241 239 243 243 243 242 241 235 232 233 234 224 218 217 217 218 219 221 224 227 229 232 232 231 233 237 237 238 242 242 246 248 250 252 253 252 251
278 269 262 254 246 226 229 233 235 234 236 239 239 237 239 234 233 228 229 233 218 218 220 220 221 223 227 229 231 232 233 234 236 238 242 242 246 246 245 246 249 253 255 257 257
271 260 252 248 243 228 222 226 229 230 230 233 236 233 235 235 233 228 226 228 224 219 219 220 221 222 225 229 232 233 235 236 237 239 243 245 249 251 248 249 250 252 254 255 257
256 244 240 239 235 227 220 218 222 228 225 228 232 230 232 235 233 230 224 223 225 222 222 221 221 223 227 228 229 229 228 230 233 238 246 247 246 248 249 250 252 253 254 256 257
246 227 222 227 224 218 219 213 220 222 221 224 227 228 228 232 233 229 225 220 223 225 221 221 223 225 229 230 230 231 232 237 237 242 247 241 243 246 247 250 250 250 251 254 256
222 210 205 217 212 210 215 211 218 214 218 223 222 226 227 229 232 230 226 223 221 225 226 226 225 226 229 230 229 230 233 239 241 243 246 242 242 245 248 249 249 251 252 254 256
212 204 200 208 202 202 212 211 214 209 215 221 220 222 225 227 229 230 230 227 224 222 225 227 227 229 230 229 229 232 235 237 240 242 245 247 247 248 247 251 252 254 254 255 256
199 192 194 194 194 202 211 214 213 207 213 217 219 221 222 225 227 228 230 230 227 226 228 229 230 230 232 233 232 233 234 236 238 239 243 246 249 249 250 251 253 255 256 258 258
166 178 183 191 199 205 211 214 213 205 209 216 219 221 223 224 227 229 231 233 232 232 230 233 234 235 237 240 238 237 238 239 240 242 243 245 247 248 253 253 254 255 257 258 259
150 168 177 189 200 206 209 212 213 203 208 214 217 220 222 224 225 229 233 234 236 237 236 234 233 236 235 235 237 238 239 244 246 248 249 250 252 253 254 255 256 258 259 260 260
91 145 173 179 191 195 200 206 208 203 208 212 217 222 225 227 230 231 236 238 240 242 243 241 238 237 238 241 241 242 243 242 243 244 246 247 251 250 251 253 256 259 260 260 261
48 96 113 182 186 192 199 203 208 207 209 212 217 222 225 228 231 235 238 241 245 246 248 250 247 243 243 245 247 249 251 252 253 254 254 251 250 255 257 258 260 260 261 262 262
54 47 85 130 175 196 202 202 204 210 212 215 218 224 227 229 231 234 237 241 243 247 251 254 253 253 255 254 253 255 255 253 252 253 255 255 255 256 257 259 260 262 264 266 266
Height
10771 10769 10768 10767 10766 10767 10768 10769 10771 10774 10777 10782 10787 10793 10799 10805 10812 10819 10823 10830 10845 10847 10853 10858 10864 10869 10874 10878 10881 10886 10890 10890 10898 10906 10910 10914 10919 10915 10918 10923 10926 10927 10931 10935 10942
10764 10761 10759 10758 10757 10756 10756 10757 10759 10761 10765 10768 10771 10775 10781 10789 10797 10803 10805 10824 10830 10834 10841 10847 10855 10861 10867 10870 10875 10879 10878 10882 10893 10902 10907 10908 10911 10905 10911 10914 10914 10916 10922 10927 10931
10756 10754 10751 10749 10748 10748 10748 10748 10749 10751 10752 10754 10757 10761 10766 10772 10780 10787 10798 10807 10815 10821 10829 10838 10845 10851 10857 10862 10866 10869 10868 10876 10887 10896 10902 10904 10901 10897 10901 10903 10905 10910 10913 10915 10917
10750 10746 10743 10741 10740 10740 10739 10739 10739 10740 10740 10742 10744 10746 10751 10756 10765 10773 10783 10792 10800 10809 10817 10827 10833 10840 10845 10853 10855 10861 10863 10869 10880 10889 10895 10897 10893 10893 10890 10895 10896 10901 10903 10901 10904
10741 10738 10736 10733 10731 10730 10729 10728 10728 10728 10729 10730 10732 10732 10735 10742 10753 10761 10768 10777 10786 10796 10804 10813 10822 10828 10837 10842 10850 10853 10856 10863 10873 10881 10887 10889 10886 10886 10884 10886 10888 10892 10891 10888 10895
10732 10729 10726 10725 10723 10720 10719 10718 10717 10718 10719 10719 10721 10720 10722 10729 10741 10743 10754 10763 10773 10783 10792 10801 10809 10818 10828 10833 10841 10842 10849 10856 10867 10871 10876 10878 10880 10877 10877 10878 10881 10881 10879 10879 10885
10721 10718 10716 10714 10712 10711 10710 10709 10708 10708 10710 10710 10711 10711 10713 10719 10724 10732 10742 10751 10760 10769 10779 10790 10799 10808 10815 10821 10827 10834 10840 10848 10857 10860 10864 10869 10875 10869 10871 10872 10873 10873 10870 10872 10877
10709 10706 10704 10702 10701 10701 10700 10700 10699 10699 10700 10702 10703 10704 10706 10707 10714 10722 10730 10738 10747 10758 10769 10779 10788 10797 10802 10811 10816 10824 10831 10839 10843 10851 10853 10861 10861 10863 10863 10864 10865 10866 10863 10865 10869
10696 10694 10692 10690 10689 10689 10689 10690 10690 10690 10691 10693 10696 10698 10699 10699 10705 10712 10719 10726 10737 10748 10758 10769 10777 10785 10792 10798 10804 10813 10821 10826 10834 10840 10844 10851 10850 10856 10855 10855 10856 10857 10855 10856 10859
10681 10679 10678 10678 10677 10677 10678 10679 10680 10681 10683 10686 10688 10691 10692 10692 10696 10704 10712 10719 10726 10736 10746 10755 10763 10770 10778 10786 10793 10801 10809 10814 10821 10829 10835 10839 10840 10845 10845 10845 10846 10847 10846 10845 10848
10662 10661 10662 10662 10663 10665 10666 10667 10670 10672 10675 10678 10680 10683 10685 10686 10688 10695 10703 10711 10719 10727 10735 10742 10751 10757 10762 10774 10786 10792 10798 10805 10811 10820 10823 10829 10831 10833 10834 10835 10835 10834 10834 10835 10840
10640 10639 10643 10645 10647 10651 10653 10655 10658 10663 10667 10668 10671 10674 10677 10680 10683 10686 10692 10701 10708 10714 10723 10730 10737 10742 10756 10767 10777 10784 10789 10794 10806 10809 10811 10816 10820 10821 10822 10823 10824 10824 10824 10827 10832
10618 10619 10620 10627 10630 10636 10639 10642 10647 10653 10658 10659 10663 10666 10668 10672 10677 10679 10684 10690 10696 10703 10709 10714 10720 10737 10748 10756 10765 10771 10777 10785 10792 10797 10800 10804 10808 10808 10811 10813 10814 10813 10813 10817 10822
10595 10599 10601 10604 10612 10619 10624 10628 10635 10643 10647 10650 10655 10658 10659 10665 10668 10671 10675 10680 10686 10691 10698 10705 10719 10731 10738 10746 10752 10759 10763 10774 10780 10784 10788 10790 10793 10798 10801 10802 10803 10803 10804 10806 10809
10571 10575 10581 10585 10590 10602 10608 10615 10623 10631 10636 10641 10645 10648 10652 10656 10659 10663 10669 10672 10677 10684 10691 10699 10711 10719 10727 10731 10740 10744 10755 10760 10766 10771 10777 10777 10782 10787 10792 10793 10791 10790 10789 10791 10796
10546 10552 10558 10564 10570 10585 10590 10601 10611 10620 10625 10630 10635 10639 10644 10647 10651 10656 10661 10664 10669 10675 10683 10694 10704 10712 10715 10722 10730 10737 10743 10750 10758 10762 10763 10768 10770 10771 10778 10776 10776 10778 10779 10778 10783
10520 10529 10536 10544 10549 10568 10575 10586 10600 10608 10613 10620 10625 10630 10636 10640 10644 10648 10653 10658 10660 10666 10675 10685 10692 10697 10702 10710 10720 10728 10736 10742 10746 10749 10742 10760 10757 10749 10767 10762 10764 10765 10766 10766 10770
10495 10506 10515 10522 10534 10552 10560 10574 10588 10591 10604 10609 10614 10622 10627 10632 10636 10640 10646 10651 10654 10658 10666 10672 10679 10685 10691 10701 10709 10714 10723 10725 10731 10735 10734 10744 10742 10744 10746 10748 10751 10754 10755 10757 10758
10479 10488 10496 10505 10520 10538 10548 10563 10571 10581 10593 10598 10605 10613 10619 10623 10627 10632 10637 10642 10646 10651 10655 10660 10667 10675 10682 10691 10697 10704 10712 10714 10722 10725 10724 10726 10731 10730 10732 10735 10738 10741 10744 10745 10747
10468 10475 10483 10493 10510 10526 10538 10548 10555 10572 10582 10588 10598 10606 10612 10616 10620 10624 10629 10634 10639 10645 10648 10652 10659 10665 10671 10678 10685 10692 10698 10704 10708 10712 10709 10715 10719 10710 10723 10721 10723 10726 10730 10731 10731
10462 10468 10476 10487 10504 10518 10528 10534 10544 10562 10573 10581 10591 10598 10603 10608 10614 10618 10622 10627 10632 10637 10641 10645 10650 10655 10660 10667 10674 10681 10686 10691 10691 10698 10696 10700 10697 10705 10707 10710 10712 10712 10713 10715 10717
10461 10468 10475 10485 10499 10508 10517 10525 10538 10556 10566 10574 10582 10589 10596 10600 10606 10612 10615 10620 10624 10628 10633 10639 10642 10646 10649 10657 10661 10665 10670 10675 10679 10683 10682 10685 10683 10692 10694 10695 10696 10696 10697 10698 10698
10465 10470 10476 10485 10494 10504 10511 10520 10531 10549 10561 10568 10575 10581 10586 10593 10600 10605 10609 10613 10617 10621 10627 10631 10638 10640 10643 10646 10651 10656 10660 10663 10665 10667 10671 10670 10671 10679 10677 10680 10679 10681 10681 10683 10683
10469 10473 10481 10488 10495 10501 10509 10518 10529 10545 10553 10558 10565 10571 10579 10585 10591 10598 10602 10606 10610 10615 10618 10624 10629 10632 10635 10637 10641 10645 10648 10651 10653 10656 10659 10662 10656 10666 10662 10661 10662 10663 10663 10665 10665
10478 10478 10481 10484 10491 10497 10505 10513 10522 10534 10539 10550 10560 10566 10572 10578 10584 10592 10595 10600 10604 10608 10612 10617 10620 10622 10624 10628 10631 10635 10638 10639 10641 10642 10644 10643 10643 10649 10648 10647 10647 10648 10648 10647 10646
10484 10485 10488 10490 10493 10499 10506 10512 10520 10528 10537 10545 10552 10558 10564 10571 10578 10583 10588 10593 10596 10600 10605 10609 10612 10613 10616 10619 10623 10627 10628 10630 10631 10632 10632 10630 10634 10632 10631 10633 10632 10631 10631 10631 10629
10490 10491 10492 10494 10497 10501 10506 10511 10517 10524 10532 10541 10548 10553 10559 10565 10570 10576 10580 10584 10587 10592 10596 10600 10601 10604 10607 10611 10613 10612 10617 10616 10617 10617 10615 10615 10619 10616 10617 10617 10616 10616 10615 10613 10611